When you browse on this site, cookies collect data to enhance your experience and personalize the content and advertising you see.
Visit our Privacy Policy to learn more. By continuing to use the site, you agree to this use of cookies and data.
  • In Österreich
  • Länderverzeichnis
  • Für 7 Tage
  • Wassertemperatur
  • Satellitenkarten
  • Wetterkarte
  • News
  • Widgets
  • user-avatar
    Anmelden

    Stündliche Wetter Al-Budajji

    Heute, 26 Juni, Mittwoch

    Zeit Temperatur Niederschläge Wind Luftdruck Luftfeuchtigkeit
    00:00 +35°C° 0 mm 2 m/S 753 mmHg 72%
    01:00 +34°C° 0 mm 1 m/S 753 mmHg 72%
    02:00 +34°C° 0 mm 1 m/S 752 mmHg 69%
    03:00 +35°C° 0 mm 1 m/S 752 mmHg 67%
    04:00 +35°C° 0 mm 1 m/S 752 mmHg 69%
    05:00 +35°C° 0 mm 1 m/S 752 mmHg 69%
    06:00 +34°C° 0 mm 1 m/S 753 mmHg 70%
    07:00 +34°C° 0 mm 1 m/S 754 mmHg 71%
    08:00 +35°C° 0 mm 2 m/S 754 mmHg 72%
    09:00 +35°C° 0 mm 2 m/S 754 mmHg 73%
    10:00 +35°C° 0 mm 2 m/S 754 mmHg 73%
    11:00 +36°C° 0 mm 2 m/S 754 mmHg 73%
    12:00 +36°C° 0 mm 2 m/S 754 mmHg 74%
    13:00 +35°C° 0 mm 1 m/S 754 mmHg 74%
    14:00 +36°C° 0 mm 2 m/S 753 mmHg 73%
    15:00 +36°C° 0 mm 2 m/S 753 mmHg 72%
    16:00 +36°C° 0 mm 2 m/S 752 mmHg 72%
    17:00 +36°C° 0 mm 2 m/S 752 mmHg 73%
    18:00 +36°C° 0 mm 2 m/S 752 mmHg 74%
    19:00 +35°C° 0 mm 1 m/S 752 mmHg 76%
    20:00 +36°C° 0 mm 2 m/S 752 mmHg 76%
    21:00 +35°C° 0 mm 3 m/S 752 mmHg 76%
    22:00 +35°C° 0 mm 4 m/S 752 mmHg 77%
    23:00 +35°C° 0 mm 3 m/S 752 mmHg 77%

    Morgen, 27 Juni, Donnerstag

    Zeit Temperatur Niederschläge Wind Luftdruck Luftfeuchtigkeit
    00:00 +35°C° 0 mm 3 m/S 752 mmHg 78%
    01:00 +34°C° 0 mm 3 m/S 752 mmHg 78%
    02:00 +34°C° 0 mm 2 m/S 751 mmHg 78%
    03:00 +34°C° 0 mm 2 m/S 751 mmHg 78%
    04:00 +33°C° 0 mm 1 m/S 751 mmHg 79%
    05:00 +34°C° 0 mm 2 m/S 752 mmHg 79%
    06:00 +34°C° 0 mm 2 m/S 752 mmHg 79%
    07:00 +34°C° 0 mm 3 m/S 752 mmHg 78%
    08:00 +34°C° 0 mm 3 m/S 752 mmHg 78%
    09:00 +35°C° 0 mm 2 m/S 752 mmHg 77%
    10:00 +35°C° 0 mm 2 m/S 752 mmHg 76%
    11:00 +35°C° 0 mm 2 m/S 752 mmHg 73%
    12:00 +34°C° 0 mm 1 m/S 752 mmHg 71%
    13:00 +35°C° 0 mm 1 m/S 752 mmHg 68%
    14:00 +35°C° 0 mm 1 m/S 751 mmHg 65%
    15:00 +33°C° 0 mm 0 m/S 751 mmHg 62%
    16:00 +33°C° 0 mm 0 m/S 750 mmHg 59%
    17:00 +35°C° 0 mm 1 m/S 750 mmHg 62%
    18:00 +35°C° 0 mm 1 m/S 750 mmHg 66%
    19:00 +35°C° 0 mm 1 m/S 750 mmHg 69%
    20:00 +35°C° 0 mm 1 m/S 750 mmHg 70%
    21:00 +34°C° 0 mm 1 m/S 750 mmHg 71%
    22:00 +34°C° 0 mm 1 m/S 750 mmHg 71%
    23:00 +34°C° 0 mm 1 m/S 750 mmHg 70%

    übermorgen, 28 Juni, Freitag

    Zeit Temperatur Niederschläge Wind Luftdruck Luftfeuchtigkeit
    00:00 +32°C° 0 mm 0 m/S 750 mmHg 69%
    01:00 +32°C° 0 mm 0 m/S 749 mmHg 68%
    02:00 +32°C° 0 mm 0 m/S 749 mmHg 66%
    03:00 +34°C° 0 mm 1 m/S 749 mmHg 65%
    04:00 +34°C° 0 mm 1 m/S 749 mmHg 64%
    05:00 +34°C° 0 mm 1 m/S 749 mmHg 64%
    06:00 +34°C° 0 mm 1 m/S 750 mmHg 64%
    07:00 +34°C° 0 mm 1 m/S 750 mmHg 64%
    08:00 +35°C° 0 mm 1 m/S 750 mmHg 64%
    09:00 +35°C° 0 mm 1 m/S 751 mmHg 64%
    10:00 +35°C° 0 mm 1 m/S 751 mmHg 64%
    11:00 +35°C° 0 mm 1 m/S 751 mmHg 63%
    12:00 +34°C° 0 mm 0 m/S 750 mmHg 62%
    13:00 +34°C° 0 mm 0 m/S 750 mmHg 62%
    14:00 +37°C° 0 mm 1 m/S 750 mmHg 59%
    15:00 +37°C° 0 mm 1 m/S 749 mmHg 57%
    16:00 +38°C° 0 mm 2 m/S 749 mmHg 54%
    17:00 +37°C° 0 mm 1 m/S 749 mmHg 56%
    18:00 +37°C° 0 mm 1 m/S 749 mmHg 59%
    19:00 +34°C° 0 mm 0 m/S 749 mmHg 61%
    20:00 +36°C° 0 mm 1 m/S 749 mmHg 60%
    21:00 +36°C° 0 mm 1 m/S 749 mmHg 58%
    22:00 +36°C° 0 mm 1 m/S 749 mmHg 56%
    23:00 +36°C° 0 mm 1 m/S 749 mmHg 54%

    29 Juni, Samstag

    Zeit Temperatur Niederschläge Wind Luftdruck Luftfeuchtigkeit
    00:00 +37°C° 0 mm 2 m/S 749 mmHg 53%
    01:00 +37°C° 0 mm 2 m/S 748 mmHg 51%
    02:00 +37°C° 0 mm 2 m/S 748 mmHg 51%
    03:00 +37°C° 0 mm 2 m/S 748 mmHg 51%
    04:00 +37°C° 0 mm 2 m/S 748 mmHg 51%
    05:00 +37°C° 0 mm 2 m/S 749 mmHg 51%
    06:00 +37°C° 0 mm 2 m/S 749 mmHg 52%
    07:00 +37°C° 0 mm 2 m/S 750 mmHg 52%
    08:00 +37°C° 0 mm 2 m/S 750 mmHg 54%
    09:00 +36°C° 0 mm 1 m/S 750 mmHg 57%
    10:00 +36°C° 0 mm 1 m/S 751 mmHg 60%
    11:00 +37°C° 0 mm 2 m/S 750 mmHg 57%
    12:00 +38°C° 0 mm 3 m/S 750 mmHg 54%
    13:00 +38°C° 0 mm 3 m/S 750 mmHg 51%
    14:00 +38°C° 0 mm 3 m/S 749 mmHg 51%
    15:00 +38°C° 0 mm 3 m/S 749 mmHg 51%
    16:00 +38°C° 0 mm 3 m/S 749 mmHg 51%
    17:00 +38°C° 0 mm 3 m/S 748 mmHg 52%
    18:00 +38°C° 0 mm 3 m/S 748 mmHg 53%
    19:00 +38°C° 0 mm 3 m/S 748 mmHg 54%
    20:00 +37°C° 0 mm 3 m/S 748 mmHg 59%
    21:00 +36°C° 0 mm 3 m/S 749 mmHg 62%
    22:00 +36°C° 0 mm 3 m/S 749 mmHg 65%
    23:00 +36°C° 0 mm 2 m/S 749 mmHg 67%

    30 Juni, Sonntag

    Zeit Temperatur Niederschläge Wind Luftdruck Luftfeuchtigkeit
    00:00 +36°C° 0 mm 2 m/S 748 mmHg 68%
    01:00 +35°C° 0 mm 1 m/S 748 mmHg 69%
    02:00 +36°C° 0 mm 2 m/S 748 mmHg 66%
    03:00 +36°C° 0 mm 3 m/S 748 mmHg 63%
    04:00 +37°C° 0 mm 3 m/S 748 mmHg 60%
    05:00 +36°C° 0 mm 5 m/S 748 mmHg 62%
    06:00 +36°C° 0 mm 6 m/S 748 mmHg 63%
    07:00 +36°C° 0 mm 7 m/S 749 mmHg 65%
    08:00 +36°C° 0 mm 7 m/S 749 mmHg 63%
    09:00 +36°C° 0 mm 7 m/S 749 mmHg 61%
    10:00 +38°C° 0 mm 7 m/S 750 mmHg 60%
    11:00 +38°C° 0 mm 7 m/S 749 mmHg 60%
    12:00 +38°C° 0 mm 7 m/S 749 mmHg 60%
    13:00 +38°C° 0 mm 8 m/S 749 mmHg 61%
    14:00 +38°C° 0 mm 7 m/S 749 mmHg 61%
    15:00 +38°C° 0 mm 7 m/S 748 mmHg 62%
    16:00 +38°C° 0 mm 6 m/S 748 mmHg 63%
    17:00 +38°C° 0 mm 6 m/S 748 mmHg 63%
    18:00 +37°C° 0 mm 5 m/S 748 mmHg 64%
    19:00 +37°C° 0 mm 5 m/S 748 mmHg 64%
    20:00 +38°C° 0 mm 6 m/S 748 mmHg 63%
    21:00 +38°C° 0 mm 7 m/S 748 mmHg 62%
    22:00 +38°C° 0 mm 8 m/S 748 mmHg 61%
    23:00 +38°C° 0 mm 8 m/S 748 mmHg 60%

    1 Juli, Montag

    Zeit Temperatur Niederschläge Wind Luftdruck Luftfeuchtigkeit
    00:00 +38°C° 0 mm 7 m/S 748 mmHg 60%
    01:00 +38°C° 0 mm 7 m/S 747 mmHg 59%
    02:00 +38°C° 0 mm 7 m/S 747 mmHg 59%
    03:00 +38°C° 0 mm 7 m/S 747 mmHg 59%
    04:00 +38°C° 0 mm 7 m/S 747 mmHg 59%
    05:00 +38°C° 0 mm 7 m/S 747 mmHg 59%
    06:00 +38°C° 0 mm 7 m/S 748 mmHg 60%
    07:00 +38°C° 0 mm 7 m/S 748 mmHg 60%
    08:00 +38°C° 0 mm 7 m/S 748 mmHg 60%
    09:00 +38°C° 0 mm 6 m/S 748 mmHg 61%
    10:00 +38°C° 0 mm 6 m/S 749 mmHg 61%
    11:00 +38°C° 0 mm 6 m/S 748 mmHg 62%
    12:00 +38°C° 0 mm 6 m/S 748 mmHg 63%
    13:00 +38°C° 0 mm 6 m/S 748 mmHg 64%
    14:00 +38°C° 0 mm 7 m/S 748 mmHg 64%
    15:00 +38°C° 0 mm 8 m/S 748 mmHg 65%
    16:00 +38°C° 0 mm 8 m/S 747 mmHg 65%
    17:00 +38°C° 0 mm 8 m/S 747 mmHg 64%
    18:00 +38°C° 0 mm 8 m/S 747 mmHg 63%
    19:00 +38°C° 0 mm 8 m/S 747 mmHg 62%
    20:00 +38°C° 0 mm 8 m/S 747 mmHg 62%
    21:00 +38°C° 0 mm 8 m/S 747 mmHg 63%
    22:00 +38°C° 0 mm 9 m/S 747 mmHg 63%
    23:00 +38°C° 0 mm 9 m/S 747 mmHg 63%
    Mehr zeigen